Location: Gazon
(48.1318°N, 1.2708°W)
Time: 22:57:13
(UTC+00:00)

Cosmos 1782 Rocket - Pass Details

Date: 18 September 2020
Orbit: 607 x 632 km, 82.5° (Epoch: 25 October)

Event Time Altitude Azimuth Distance (km) Brightness Sun altitude
Rises 18:42:18 0° 175° (S) 2,881 6.8 -6.1°
Reaches altitude 10° 18:44:32 10° 171° (S) 1,985 6.0 -6.5°
Maximum altitude 18:48:49 54° 94° (E) 762 3.7 -7.2°
Drops below altitude 10° 18:53:10 10° 18° (NNE) 2,016 6.1 -7.9°
Sets 18:55:27 0° 14° (NNE) 2,931 7.0 -8.3°
